Time,TemperatureF,DewpointF,PressureIn,WindDirection,WindDirectionDegrees,WindSpeedMPH,WindSpeedGustMPH,Humidity,HourlyPrecipIn,Conditions,Clouds,dailyrainin,SoftwareType,DateUTC
2013-03-13 00:03:00,48.8,34.0,29.96,WSW,244,0.0,2.0,56,0.00,,,0.00,weatherlink.com 1.10,2013-03-13 04:03:00,
2013-03-13 00:18:00,48.1,35.0,29.96,WSW,244,0.0,3.0,60,0.00,,,0.00,weatherlink.com 1.10,2013-03-13 04:18:00,
2013-03-13 00:33:00,47.6,35.0,29.97,West,265,1.0,3.0,62,0.00,,,0.00,weatherlink.com 1.10,2013-03-13 04:33:00,
2013-03-13 00:48:00,46.9,35.0,29.97,SSE,159,0.0,2.0,63,0.00,,,0.00,weatherlink.com 1.10,2013-03-13 04:48:00,
2013-03-13 01:03:00,45.9,35.0,29.96,SSE,159,0.0,2.0,65,0.00,,,0.00,weatherlink.com 1.10,2013-03-13 05:03:00,
2013-03-13 01:18:00,45.3,34.0,29.97,SSE,159,0.0,1.0,66,0.00,,,0.00,weatherlink.com 1.10,2013-03-13 05:18:00,
2013-03-13 01:33:00,44.3,35.0,29.98,SSE,159,0.0,0.0,70,0.00,,,0.00,weatherlink.com 1.10,2013-03-13 05:33:00,
2013-03-13 01:48:00,43.1,34.0,29.98,SSE,159,0.0,0.0,71,0.00,,,0.00,weatherlink.com 1.10,2013-03-13 05:48:00,
2013-03-13 02:03:00,42.2,34.0,29.98,SSE,159,0.0,0.0,73,0.00,,,0.00,weatherlink.com 1.10,2013-03-13 06:03:00,
2013-03-13 02:18:00,41.4,34.0,29.98,SSE,159,0.0,0.0,75,0.00,,,0.00,weatherlink.com 1.10,2013-03-13 06:18:00,
2013-03-13 02:33:00,40.4,34.0,29.99,SSE,159,0.0,0.0,79,0.00,,,0.00,weatherlink.com 1.10,2013-03-13 06:33:00,
2013-03-13 02:48:00,39.5,34.0,29.99,SSE,159,0.0,0.0,81,0.00,,,0.00,weatherlink.com 1.10,2013-03-13 06:48:00,
2013-03-13 03:03:00,38.7,33.0,29.99,SSE,159,0.0,0.0,81,0.00,,,0.00,weatherlink.com 1.10,2013-03-13 07:03:00,
2013-03-13 03:18:00,38.2,33.0,29.99,SSE,159,0.0,0.0,82,0.00,,,0.00,weatherlink.com 1.10,2013-03-13 07:18:00,
2013-03-13 03:33:00,37.6,33.0,30.00,SSE,159,1.0,1.0,83,0.00,,,0.00,weatherlink.com 1.10,2013-03-13 07:33:00,
2013-03-13 03:48:00,37.3,33.0,30.00,SSE,159,0.0,0.0,84,0.00,,,0.00,weatherlink.com 1.10,2013-03-13 07:48:00,
2013-03-13 04:03:00,37.0,33.0,30.00,SSE,159,0.0,0.0,84,0.00,,,0.00,weatherlink.com 1.10,2013-03-13 08:03:00,
2013-03-13 04:18:00,36.5,32.0,30.00,SSE,159,0.0,0.0,85,0.00,,,0.00,weatherlink.com 1.10,2013-03-13 08:18:00,
2013-03-13 04:33:00,36.1,32.0,30.00,SSE,159,0.0,0.0,86,0.00,,,0.00,weatherlink.com 1.10,2013-03-13 08:33:00,
2013-03-13 04:48:00,35.8,32.0,30.00,SSE,159,0.0,0.0,87,0.00,,,0.00,weatherlink.com 1.10,2013-03-13 08:48:00,
2013-03-13 05:03:00,35.5,32.0,30.01,SSE,159,0.0,0.0,87,0.00,,,0.00,weatherlink.com 1.10,2013-03-13 09:03:00,
2013-03-13 05:19:00,35.3,32.0,30.01,SSE,159,0.0,1.0,89,0.00,,,0.00,weatherlink.com 1.10,2013-03-13 09:19:00,
2013-03-13 05:34:00,35.4,33.0,30.02,SSE,159,0.0,0.0,89,0.00,,,0.00,weatherlink.com 1.10,2013-03-13 09:34:00,
2013-03-13 05:49:00,35.4,33.0,30.02,SSE,159,0.0,0.0,89,0.00,,,0.00,weatherlink.com 1.10,2013-03-13 09:49:00,
2013-03-13 06:04:00,35.7,33.0,30.03,SSE,159,0.0,1.0,88,0.00,,,0.00,weatherlink.com 1.10,2013-03-13 10:04:00,
2013-03-13 06:19:00,36.6,33.0,30.03,SW,236,0.0,2.0,86,0.00,,,0.00,weatherlink.com 1.10,2013-03-13 10:19:00,
2013-03-13 06:34:00,37.7,33.0,30.04,SW,236,0.0,2.0,82,0.00,,,0.00,weatherlink.com 1.10,2013-03-13 10:34:00,
2013-03-13 06:49:00,38.6,32.0,30.04,SW,236,0.0,2.0,78,0.00,,,0.00,weatherlink.com 1.10,2013-03-13 10:49:00,
2013-03-13 07:04:00,38.5,33.0,30.05,SW,236,0.0,1.0,79,0.00,,,0.00,weatherlink.com 1.10,2013-03-13 11:04:00,
2013-03-13 07:19:00,38.2,32.0,30.05,SW,236,0.0,0.0,79,0.00,,,0.00,weatherlink.com 1.10,2013-03-13 11:19:00,
2013-03-13 07:34:00,37.5,32.0,30.05,SW,236,0.0,0.0,81,0.00,,,0.00,weatherlink.com 1.10,2013-03-13 11:34:00,
2013-03-13 07:49:00,36.5,32.0,30.05,SW,236,0.0,0.0,83,0.00,,,0.00,weatherlink.com 1.10,2013-03-13 11:49:00,
2013-03-13 08:04:00,35.8,31.0,30.06,SW,236,0.0,0.0,84,0.00,,,0.00,weatherlink.com 1.10,2013-03-13 12:04:00,
2013-03-13 08:19:00,35.5,32.0,30.06,SW,236,0.0,0.0,86,0.00,,,0.00,weatherlink.com 1.10,2013-03-13 12:19:00,
2013-03-13 08:34:00,35.8,33.0,30.06,SW,236,0.0,1.0,88,0.00,,,0.00,weatherlink.com 1.10,2013-03-13 12:34:00,
2013-03-13 08:49:00,38.6,36.0,30.06,SW,214,0.0,0.0,89,0.00,,,0.00,weatherlink.com 1.10,2013-03-13 12:49:00,
2013-03-13 09:04:00,41.9,36.0,30.06,SW,214,0.0,1.0,79,0.00,,,0.00,weatherlink.com 1.10,2013-03-13 13:04:00,
2013-03-13 09:19:00,45.0,34.0,30.07,SE,142,1.0,3.0,66,0.00,,,0.00,weatherlink.com 1.10,2013-03-13 13:19:00,
2013-03-13 09:34:00,46.6,34.0,30.07,SW,227,1.0,2.0,61,0.00,,,0.00,weatherlink.com 1.10,2013-03-13 13:34:00,
2013-03-13 09:49:00,47.2,32.0,30.07,WSW,257,0.0,4.0,55,0.00,,,0.00,weatherlink.com 1.10,2013-03-13 13:49:00,
2013-03-13 10:04:00,48.1,32.0,30.07,WNW,289,1.0,2.0,55,0.00,,,0.00,weatherlink.com 1.10,2013-03-13 14:04:00,
2013-03-13 10:19:00,49.1,30.0,30.06,SW,215,0.0,3.0,49,0.00,,,0.00,weatherlink.com 1.10,2013-03-13 14:19:00,
2013-03-13 10:34:00,50.0,31.0,30.07,WNW,302,3.0,5.0,48,0.00,,,0.00,weatherlink.com 1.10,2013-03-13 14:34:00,
2013-03-13 10:49:00,50.9,29.0,30.06,SW,236,4.0,7.0,43,0.00,,,0.00,weatherlink.com 1.10,2013-03-13 14:49:00,
2013-03-13 11:04:00,51.2,30.0,30.06,ESE,116,4.0,7.0,44,0.00,,,0.00,weatherlink.com 1.10,2013-03-13 15:04:00,
2013-03-13 11:19:00,52.1,31.0,30.06,SE,132,2.0,7.0,44,0.00,,,0.00,weatherlink.com 1.10,2013-03-13 15:19:00,
2013-03-13 11:34:00,52.5,29.0,30.05,WSW,250,3.0,8.0,41,0.00,,,0.00,weatherlink.com 1.10,2013-03-13 15:34:00,
2013-03-13 11:49:00,53.2,30.0,30.05,ESE,117,4.0,8.0,41,0.00,,,0.00,weatherlink.com 1.10,2013-03-13 15:49:00,
2013-03-13 12:04:00,53.7,31.0,30.05,West,274,8.0,13.0,42,0.00,,,0.00,weatherlink.com 1.10,2013-03-13 16:04:00,
2013-03-13 12:19:00,54.0,29.0,30.05,ENE,59,2.0,10.0,38,0.00,,,0.00,weatherlink.com 1.10,2013-03-13 16:19:00,
2013-03-13 12:34:00,53.4,29.0,30.04,SSE,148,1.0,12.0,40,0.00,,,0.00,weatherlink.com 1.10,2013-03-13 16:34:00,
2013-03-13 12:49:00,55.0,29.0,30.04,East,100,7.0,9.0,37,0.00,,,0.00,weatherlink.com 1.10,2013-03-13 16:49:00,
2013-03-13 13:04:00,54.7,30.0,30.03,WNW,287,6.0,6.0,39,0.00,,,0.00,weatherlink.com 1.10,2013-03-13 17:04:00,
2013-03-13 13:20:00,55.8,30.0,30.02,West,264,3.0,11.0,38,0.00,,,0.00,weatherlink.com 1.10,2013-03-13 17:20:00,
2013-03-13 13:35:00,56.6,30.0,30.02,WSW,252,4.0,10.0,36,0.00,,,0.00,weatherlink.com 1.10,2013-03-13 17:35:00,
2013-03-13 13:50:00,55.4,30.0,30.01,WNW,302,4.0,10.0,38,0.00,,,0.00,weatherlink.com 1.10,2013-03-13 17:50:00,
2013-03-13 14:05:00,54.9,30.0,30.00,NW,308,3.0,8.0,39,0.00,,,0.00,weatherlink.com 1.10,2013-03-13 18:05:00,
2013-03-13 14:20:00,55.5,31.0,29.99,SW,220,2.0,10.0,39,0.00,,,0.00,weatherlink.com 1.10,2013-03-13 18:20:00,
2013-03-13 14:35:00,55.5,29.0,29.98,West,262,8.0,10.0,36,0.00,,,0.00,weatherlink.com 1.10,2013-03-13 18:35:00,
2013-03-13 14:50:00,54.3,28.0,29.98,SW,233,0.0,9.0,37,0.00,,,0.00,weatherlink.com 1.10,2013-03-13 18:50:00,
2013-03-13 15:05:00,56.2,31.0,29.97,NNW,344,1.0,8.0,38,0.00,,,0.00,weatherlink.com 1.10,2013-03-13 19:05:00,
2013-03-13 15:20:00,56.0,30.0,29.97,West,259,2.0,7.0,37,0.00,,,0.00,weatherlink.com 1.10,2013-03-13 19:20:00,
2013-03-13 15:35:00,55.0,28.0,29.97,West,276,4.0,8.0,36,0.00,,,0.00,weatherlink.com 1.10,2013-03-13 19:35:00,
2013-03-13 15:50:00,54.7,29.0,29.97,NNW,336,2.0,10.0,37,0.00,,,0.00,weatherlink.com 1.10,2013-03-13 19:50:00,
2013-03-13 16:05:00,55.6,30.0,29.97,WSW,244,0.0,6.0,38,0.00,,,0.00,weatherlink.com 1.10,2013-03-13 20:05:00,
2013-03-13 16:20:00,57.2,27.0,29.96,SW,230,1.0,10.0,32,0.00,,,0.00,weatherlink.com 1.10,2013-03-13 20:20:00,
2013-03-13 16:35:00,57.3,27.0,29.96,West,260,2.0,9.0,32,0.00,,,0.00,weatherlink.com 1.10,2013-03-13 20:35:00,
2013-03-13 16:50:00,56.8,29.0,29.96,West,269,2.0,9.0,34,0.00,,,0.00,weatherlink.com 1.10,2013-03-13 20:50:00,
2013-03-13 17:20:00,57.3,30.0,29.96,NW,324,1.0,6.0,35,0.00,,,0.00,weatherlink.com 1.10,2013-03-13 21:20:00,
2013-03-13 17:35:00,56.9,28.0,29.97,WSW,242,3.0,8.0,33,0.00,,,0.00,weatherlink.com 1.10,2013-03-13 21:35:00,
2013-03-13 17:50:00,55.3,27.0,29.98,WNW,290,1.0,11.0,34,0.00,,,0.00,weatherlink.com 1.10,2013-03-13 21:50:00,
2013-03-13 18:05:00,55.7,28.0,29.99,SSW,204,5.0,10.0,34,0.00,,,0.00,weatherlink.com 1.10,2013-03-13 22:05:00,
2013-03-13 18:20:00,54.1,28.0,29.99,WNW,285,3.0,11.0,37,0.00,,,0.00,weatherlink.com 1.10,2013-03-13 22:20:00,
2013-03-13 18:35:00,52.7,27.0,30.00,SW,223,3.0,10.0,37,0.00,,,0.00,weatherlink.com 1.10,2013-03-13 22:35:00,
2013-03-13 18:50:00,51.3,25.0,30.01,WSW,242,6.0,12.0,36,0.00,,,0.00,weatherlink.com 1.10,2013-03-13 22:50:00,
2013-03-13 19:05:00,50.0,24.0,30.02,SW,229,3.0,12.0,36,0.00,,,0.00,weatherlink.com 1.10,2013-03-13 23:05:00,
2013-03-13 19:20:00,48.8,23.0,30.04,WNW,290,1.0,9.0,37,0.00,,,0.00,weatherlink.com 1.10,2013-03-13 23:20:00,
2013-03-13 19:35:00,48.0,23.0,30.04,West,281,4.0,13.0,37,0.00,,,0.00,weatherlink.com 1.10,2013-03-13 23:35:00,
2013-03-13 19:50:00,47.3,21.0,30.06,WNW,282,3.0,10.0,36,0.00,,,0.00,weatherlink.com 1.10,2013-03-13 23:50:00,
2013-03-13 20:05:00,46.7,21.0,30.06,WNW,289,3.0,10.0,37,0.00,,,0.00,weatherlink.com 1.10,2013-03-14 00:05:00,
2013-03-13 20:20:00,46.0,22.0,30.08,SSE,163,2.0,10.0,39,0.00,,,0.00,weatherlink.com 1.10,2013-03-14 00:20:00,
2013-03-13 20:35:00,45.1,22.0,30.08,SSW,201,5.0,9.0,40,0.00,,,0.00,weatherlink.com 1.10,2013-03-14 00:35:00,
2013-03-13 20:50:00,44.6,21.0,30.09,SW,235,2.0,15.0,39,0.00,,,0.00,weatherlink.com 1.10,2013-03-14 00:50:00,
2013-03-13 21:20:00,43.3,21.0,30.10,WNW,299,2.0,8.0,42,0.00,,,0.00,weatherlink.com 1.10,2013-03-14 01:20:00,
2013-03-13 21:35:00,42.7,21.0,30.11,WNW,289,2.0,9.0,43,0.00,,,0.00,weatherlink.com 1.10,2013-03-14 01:35:00,
2013-03-13 21:50:00,42.3,21.0,30.11,WSW,238,3.0,13.0,43,0.00,,,0.00,weatherlink.com 1.10,2013-03-14 01:50:00,
2013-03-13 22:05:00,41.8,21.0,30.12,WNW,299,1.0,8.0,43,0.00,,,0.00,weatherlink.com 1.10,2013-03-14 02:05:00,
2013-03-13 22:20:00,41.3,21.0,30.12,West,262,1.0,6.0,44,0.00,,,0.00,weatherlink.com 1.10,2013-03-14 02:20:00,
2013-03-13 22:35:00,41.1,21.0,30.13,West,273,0.0,8.0,44,0.00,,,0.00,weatherlink.com 1.10,2013-03-14 02:35:00,
2013-03-13 22:50:00,40.7,21.0,30.12,West,266,1.0,9.0,45,0.00,,,0.00,weatherlink.com 1.10,2013-03-14 02:50:00,
2013-03-13 23:20:00,40.1,21.0,30.14,SW,216,0.0,8.0,47,0.00,,,0.00,weatherlink.com 1.10,2013-03-14 03:20:00,
2013-03-13 23:35:00,39.3,21.0,30.14,West,263,2.0,5.0,48,0.00,,,0.00,weatherlink.com 1.10,2013-03-14 03:35:00,
2013-03-13 23:50:00,39.3,20.0,30.14,WNW,303,1.0,5.0,47,0.00,,,0.00,weatherlink.com 1.10,2013-03-14 03:50:00,